User: anonymous   Login
Location: eljas
(40.1958°N, 6.8661°W)
Time: 13:26:05
(UTC+02:00)
Language:

Okean O Rocket - Orbit

View from above orbital plane
View from above orbital plane
View from above satellite
View from above satellite

Ground track
Ground track

The orbit data is extracted from the following two-line orbital elements,

1 25861U 99039B   17148.87611260 +.00000041 +00000-0 +13012-4 0  9990
2 25861 098.1036 120.0584 0016542 140.0123 248.2268 14.78410707962929
Epoch (UTC): 28 May 2017 21:01:36
Eccentricity: 0.0016542
inclination: 98.1036°
perigee height: 623 km
apogee height: 646 km
right ascension of ascending node: 120.0584°
argument of perigee: 140.0123°
revolutions per day: 14.78410707
mean anomaly at epoch: 248.2268°
orbit number at epoch: 96292

The dashed part of the orbit path shows where the satellite is in the earth's shadow,  

DLR